Location: Zengebe
(1.4833°N, 32.5167°E)
Time: 23:02:57
(UTC+00:00)

Cosmos 1666 Rocket - Pass Details

Date: 07 June 2020
Orbit: 603 x 634 km, 82.5° (Epoch: 10 July)

Event Time Altitude Azimuth Distance (km) Brightness Sun altitude
Exits shadow 02:37:53 18° 204° (SSW) 1,541 5.2 -15.7°
Maximum altitude 02:40:59 50° 274° (W) 794 3.7 -15.0°
Drops below altitude 10° 02:45:17 10° 350° (N) 1,999 6.3 -14.0°
Sets 02:47:34 0° 355° (N) 2,907 7.3 -13.5°
